Retour au catalogue

STARLINK-36495

ActifCommunicationsVLEO
NORAD 67311·PAYLOAD·🇺🇸 United States

Lancé Jan 4, 2026 depuis Cape Canaveral Space Force Station

Loading…

Prochains Passages (prochaines 24 heures)

TLE

FraisSource: CelesTrak SupGP

Époque: Sep 15, 2026, 03:46 UTC

1 67311C 26002G   26258.15743056  .00040766  00000+0  14761-2 0  2583
2 67311  43.0028 335.0654 0001427 262.9061 244.2367 15.27569004    11

Suivez STARLINK-36495 en temps réel avec AllMySat

Download on the App Store